Pittsburgh Allegheny Co., PA

7:17 AM EDT on April 26, 2017 (GMT -0400)
Allegheny County

Weather History for KAGC - August, 2013

Change the Weather History Date:

Sunday, August 18, 2013

  Actual Average Record
Temperature  
Mean Temperature 67 °F -  
Max Temperature 71 °F 82 °F 96 °F (1988)
Min Temperature 63 °F 63 °F 33 °F (1996)
Cooling Degree Days 2    
Growing Degree Days 17 (Base 50)    
Moisture  
Dew Point 61 °F    
Average Humidity 81    
Maximum Humidity 93    
Minimum Humidity 71    
Precipitation  
Precipitation 0.02 in - - ()
Sea Level Pressure  
Sea Level Pressure 30.20 in    
Wind  
Wind Speed 3 mph (ESE)    
Max Wind Speed 7 mph    
Max Gust Speed -    
Visibility 10 miles    
Events Rain    
Averages and records for this station are not official NWS values.
T = Trace of Precipitation, MM = Missing Value Source: NWS Daily Summary

Daily Weather History Graph

Daily Weather History Graph

Search for Another Location

Airport or City:

Trip Planner

Search our weather history database for the weather conditions in past years. The results will help you decide how hot, cold, wet, or windy it might be!

Date:

Astronomy

Aug. 18, 2013 Rise Set
Actual Time 6:33 AM EDT 8:12 PM EDT
Civil Twilight 6:04 AM EDT 8:41 PM EDT
Nautical Twilight 5:29 AM EDT 9:16 PM EDT
Astronomical Twilight 4:52 AM EDT 9:53 PM EDT
Moon 6:17 PM EDT (8/18) 3:41 AM EDT (8/18)
Length of Visible Light 14h 36m
Length of Day
13h 38m
Waxing Gibbous, 92% of the Moon is Illuminated
Aug 18
Waxing Gibbous
Aug 20
Full
Aug 28
Last Quarter
Sep 5
New
Sep 12
First Quarter

Hourly Weather History & Observations

Time (EDT) Temp. Dew Point Humidity Pressure Visibility Wind Dir Wind Speed Gust Speed Precip Events Conditions
12:53 AM 64.9 °F 55.9 °F 73% 30.21 in 10.0 mi East 3.5 mph - N/A   Clear
1:53 AM 64.0 °F 55.9 °F 75% 30.19 in 10.0 mi East 4.6 mph - N/A   Clear
2:53 AM 64.0 °F 55.9 °F 75% 30.20 in 10.0 mi Calm Calm - N/A   Clear
3:53 AM 64.0 °F 55.9 °F 75% 30.19 in 10.0 mi ENE 3.5 mph - N/A   Overcast
4:53 AM 64.0 °F 57.0 °F 78% 30.19 in 10.0 mi Calm Calm - N/A   Mostly Cloudy
5:53 AM 63.0 °F 57.9 °F 84% 30.19 in 10.0 mi Calm Calm - N/A   Overcast
6:53 AM 64.0 °F 57.0 °F 78% 30.22 in 10.0 mi Calm Calm - N/A   Mostly Cloudy
7:53 AM 63.0 °F 59.0 °F 87% 30.23 in 10.0 mi South 4.6 mph - 0.00 in   Overcast
8:53 AM 63.0 °F 60.1 °F 90% 30.24 in 9.0 mi SE 5.8 mph - 0.01 in   Overcast
9:53 AM 63.0 °F 60.1 °F 90% 30.24 in 10.0 mi East 4.6 mph - N/A   Overcast
10:53 AM 66.0 °F 61.0 °F 84% 30.24 in 10.0 mi ESE 5.8 mph - N/A   Overcast
11:53 AM 68.0 °F 60.1 °F 76% 30.24 in 10.0 mi ESE 5.8 mph - N/A   Overcast
12:53 PM 69.1 °F 61.0 °F 75% 30.22 in 10.0 mi East 6.9 mph - N/A   Overcast
1:50 PM 69.8 °F 60.8 °F 73% 30.22 in 10.0 mi ESE 4.6 mph - N/A   Overcast
1:53 PM 70.0 °F 60.1 °F 71% 30.22 in 10.0 mi East 4.6 mph - N/A   Overcast
2:53 PM 70.0 °F 61.0 °F 73% 30.21 in 10.0 mi East 3.5 mph - N/A   Overcast
3:31 PM 69.8 °F 62.6 °F 78% 30.20 in 10.0 mi ESE 4.6 mph - 0.00 in   Overcast
3:53 PM 71.1 °F 62.1 °F 73% 30.19 in 10.0 mi East 3.5 mph - 0.00 in   Mostly Cloudy
4:53 PM 70.0 °F 63.0 °F 78% 30.18 in 10.0 mi Calm Calm - N/A   Overcast
5:53 PM 70.0 °F 63.0 °F 78% 30.17 in 10.0 mi Calm Calm - 0.00 in Rain Light Rain
6:53 PM 69.1 °F 64.0 °F 84% 30.17 in 10.0 mi Calm Calm - 0.01 in Rain Light Rain
7:53 PM 68.0 °F 64.9 °F 90% 30.17 in 10.0 mi Calm Calm - 0.00 in   Mostly Cloudy
8:31 PM 68.0 °F 62.6 °F 83% 30.16 in 10.0 mi Calm Calm - 0.00 in Rain Light Rain
8:53 PM 66.9 °F 64.9 °F 93% 30.17 in 10.0 mi Calm Calm - 0.00 in   Mostly Cloudy
9:53 PM 66.9 °F 64.0 °F 90% 30.18 in 10.0 mi Calm Calm - N/A   Mostly Cloudy
10:53 PM 66.9 °F 63.0 °F 87% 30.17 in 10.0 mi Calm Calm - N/A   Clear
11:53 PM 66.0 °F 63.0 °F 90% 30.17 in 10.0 mi Calm Calm - N/A   Overcast